Regional Weather Roundup
Issued by NWS

Home | Current Version | Previous Version | Text Only | Print | Product List | Glossary Off
Versions: 1 2 3 4 5 6 7 8 9 10 11 12 13 14 15 16 17 18 19 20 21 22 23 24 25 26 27 28 29 30 31 32 33 34 35 36 37 38 39 40 41 42 43 44 45 46 47 48 49 50

000
ASUS45 KBOU 270007
RWRCO

WEATHER ROUNDUP FOR COLORADO
NATIONAL WEATHER SERVICE DENVER/BOULDER CO
500 PM MST WED NOV 26 2014

NOTE: "FAIR" INDICATES FEW OR NO CLOUDS BELOW 12000 FEET WITH NO
SIGNIFICANT WEATHER AND/OR OBSTRUCTIONS TO VISIBILITY.

COZ001>005-013-030-031-270100-
...NORTHWEST COLORADO...

CITY           SKY/WX    TMP DP  RH WIND       PRES   REMARKS
CRAIG          PTCLDY    39  28  64 SW9       30.32R
HAYDEN         MOCLDY    43  27  52 CALM      30.33R
MEEKER         CLEAR     40  28  62 CALM      30.36R
MOUNT WERNER   NOT AVBL
STEAMBOAT SPGS CLOUDY    37  31  79 SE3       30.33R
WALDEN         PTCLDY    34  27  75 SW18G24   30.28R WCI  23
$$

COZ006>008-011-270100-
...WEST CENTRAL VALLEYS...

CITY           SKY/WX    TMP DP  RH WIND       PRES   REMARKS
GRAND JUNCTION CLEAR     44  23  43 W5        30.37R
MONTROSE       CLEAR     47  26  44 NW7       30.39R
EAGLE          PTCLDY    43  27  52 W3        30.39R
RIFLE          CLEAR     38  26  62 S6        30.39R
DELTA          CLEAR     49  25  38 CALM      30.37S
NUCLA          CLEAR     50  25  37 N3        30.42R
$$

COZ017>023-064>068-270100-
...SOUTHWEST COLORADO...

CITY           SKY/WX    TMP DP  RH WIND       PRES   REMARKS
DURANGO        CLEAR     45  22  40 E5        30.34R
CORTEZ         CLEAR     47  21  35 W6        30.38R
PAGOSA SPRINGS CLEAR     38  19  45 CALM      30.39R
TELLURIDE      NOT AVBL
WOLF CREEK PAS CLEAR     30  12  47 MISG      30.50R
$$

COZ009-010-012-014-032>034-037-058>063-270100-
...CENTRAL COLORADO...

CITY           SKY/WX    TMP DP  RH WIND       PRES   REMARKS
ASPEN          CLEAR     32  24  72 SW3       30.39R
BUENA VISTA    CLEAR     42  20  40 NW15      30.29R
COPPER MTN     CLOUDY    27  21  80 W28G43    30.42R WCI  11
BERTHOUD PASS  NOT AVBL
COTTONWOOD PAS CLEAR     39  18  41 NW7G28    30.33R
GUNNISON       CLEAR     39  23  52 W9        30.40R
KREMMLING      PTCLDY    37  28  70 W10       30.34R
LEADVILLE      PTCLDY    28  20  71 VRB5      30.38R WCI  23
MONARCH PASS   MOCLDY    23  21  93 MISG      30.47S
SALIDA         NOT AVBL
SUNLIGHT       CLEAR    N/A N/A N/A CALM      30.47R
WILKERSON PASS PTCLDY    32  16  51 CALM      30.38R
$$

COZ069>075-270100-
...SAN LUIS VALLEY/SANGRE DE CRISTO MOUNTAINS...

CITY           SKY/WX    TMP DP  RH WIND       PRES   REMARKS
ALAMOSA        PTCLDY    42  19  39 SW7       30.34R
LA VETA PASS   CLEAR     32  19  59 S13G24    30.36R WCI  22
SAGUACHE       CLEAR     41  23  48 NW10      30.36R
$$

COZ035-036-038>040-270100-
...NORTHERN COLORADO FRONT RANGE...

CITY           SKY/WX    TMP DP  RH WIND       PRES   REMARKS
DENVER INTL AP PTCLDY    29  23  78 E12       30.19R WCI  19
DMNS CITY PARK   N/A     35  24  63 E3        30.20R
AURORA         PTCLDY    31  24  76 E12       30.20R WCI  22
FRONT RANGE AP NOT AVBL
ERIE MUNI ARPT CLEAR     34  24  68 CALM      30.21R
BOULDER MUN AP CLEAR     34  25  69 NE5       30.20S WCI  30
CENTENNIAL     PTCLDY    39  26  59 N3        30.18R
BROOMFIELD     PTCLDY    36  25  64 NE6       30.20R
FORT COLLINS   CLEAR     34  21  60 SE7       30.24R WCI  28
LONGMONT       CLEAR     35  25  67 E5        30.24R WCI  30
$$

COZ041-046-047-076>085-087-088-270100-
...PIKES PEAK/PALMER DIVIDE AND SOUTHERN FOOTHILLS...

CITY           SKY/WX    TMP DP  RH WIND       PRES   REMARKS
COLO. SPRINGS  MOCLDY    33  24  69 SE6       30.24R WCI  28
A. F. ACADEMY  PTCLDY    32  24  72 SE3       30.24R
ELLICOTT       NOT AVBL
FALCON         NOT AVBL
FORT CARSON    CLEAR     33  24  70 E5        30.23R WCI  28
LIMON          CLEAR     32  22  66 SE13      30.23R WCI  22
MONUMENT HILL  CLEAR     32  27  80 SW7       30.21R WCI  26
TRINIDAD       CLEAR     41  28  60 E6        30.23R
$$

COZ042>045-048>051-090-091-270100-
...NORTHEAST COLORADO...

CITY           SKY/WX    TMP DP  RH WIND       PRES   REMARKS
GREELEY ARPT   CLEAR     30  19  64 E7        30.24R WCI  23
AKRON          CLEAR     23  21  92 SE7       30.24S WCI  15
BURLINGTON     CLEAR     30  23  75 E7        30.27F WCI  23
WRAY           PTCLDY    31  26  81 NE3       30.31R
STERLING       MOCLDY    32  28  86 E3        30.26S
HOLYOKE        PTCLDY    34  30  86 CALM      30.30S
FORT MORGAN    CLEAR     26  22  84 E6        30.25S WCI  20
$$

COZ086-089-092>099-270100-
...SOUTHEAST COLORADO...

CITY           SKY/WX    TMP DP  RH WIND       PRES   REMARKS
PUEBLO         CLEAR     40  26  57 SE3       30.24R
LA JUNTA       CLEAR     36  23  59 E7        30.25R
LAMAR          PTCLDY    34  20  56 E7        30.28R WCI  28
SPRINGFIELD      N/A     33  21  61 E8        30.27R WCI  26
$$



USA.gov is the U.S. government's official web portal to all federal, state and local government web resources and services.